GW4056 Weather Reports


Display with metric or nautical units.
time (UTC)temp
F
wind
direction
speed
MPH
gust
MPH
rain 1hr
in
rain 24hr
in
rain mn
in
humidity
%
barometer
mb
20260506221526 69 218 4.0 12.0 0.00 0.00 0.00 72 1007.9
20260506220024 68 282 1.0 13.0 0.00 0.00 0.00 73 1008.0
20260506214521 68 231 3.0 12.0 0.00 0.00 0.00 73 1007.9
20260506213021 68 207 5.0 13.0 0.00 0.00 0.00 73 1007.7
20260506211517 68 259 3.0 13.0 0.00 0.00 0.00 73 1007.6
20260506210012 68 259 4.0 11.0 0.00 0.00 0.00 74 1007.3
20260506204512 67 194 4.0 10.0 0.00 0.00 0.00 75 1007.4
20260506203033 66 285 4.0 8.0 0.00 0.00 0.00 76 1007.4
20260506201526 66 278 5.0 12.0 0.00 0.00 0.00 76 1007.6
20260506200026 66 218 4.0 11.0 0.00 0.00 0.00 77 1007.7
20260506194522 65 248 3.0 8.0 0.00 0.00 0.00 79 1007.8
20260506193019 65 206 2.0 11.0 0.00 0.00 0.00 80 1007.9
20260506191517 65 217 5.0 15.0 0.00 0.00 0.00 80 1008.0
20260506190016 66 248 7.0 16.0 0.00 0.00 0.00 74 1008.1
20260506184508 66 219 6.0 17.0 0.00 0.00 0.00 75 1008.2
20260506183009 67 164 8.0 19.0 0.00 0.00 0.00 72 1008.2
20260506181526 70 274 11.0 19.0 0.00 0.00 0.00 64 1008.2
20260506180022 70 214 8.0 21.0 0.00 0.00 0.00 64 1008.2
20260506174522 70 235 8.0 19.0 0.00 0.00 0.00 63 1008.4
20260506173021 70 190 8.0 16.0 0.00 0.00 0.00 64 1008.5
20260506171517 71 190 8.0 17.0 0.00 0.00 0.00 64 1008.8
20260506170014 69 209 6.0 11.0 0.00 0.00 0.00 66 1008.9
20260506164510 69 220 5.0 13.0 0.00 0.00 0.00 66 1009.4
20260506163010 69 238 5.0 16.0 0.00 0.00 0.00 66 1009.7
20260506161505 70 200 3.0 12.0 0.00 0.00 0.00 64 1010.0
20260506160004 70 226 9.0 21.0 0.00 0.00 0.00 59 1010.0
20260506154512 72 266 5.0 19.0 0.00 0.00 0.00 58 1010.0
20260506153004 71 219 9.0 18.0 0.00 0.00 0.00 57 1010.0
20260506151519 71 224 7.0 19.0 0.00 0.00 0.00 57 1010.0
20260506150014 71 218 10.0 20.0 0.00 0.00 0.00 57 1010.0
20260506144511 72 202 4.0 25.0 0.00 0.00 0.00 57 1009.9
20260506143008 72 188 10.0 17.0 0.00 0.00 0.00 57 1009.9
20260506141506 71 221 10.0 18.0 0.00 0.00 0.00 58 1009.8
20260506140010 71 141 7.0 16.0 0.00 0.00 0.00 61 1009.8
20260506134506 71 141 8.0 16.0 0.00 0.00 0.00 60 1010.1
20260506133021 70 224 8.0 14.0 0.00 0.00 0.00 62 1010.3
20260506131520 69 198 7.0 18.0 0.00 0.00 0.00 65 1010.6
20260506130017 69 245 8.0 13.0 0.00 0.00 0.00 67 1010.3
20260506124512 67 218 5.0 14.0 0.00 0.00 0.00 70 1010.4
20260506123010 65 183 4.0 12.0 0.00 0.00 0.00 73 1010.7
20260506121508 65 209 6.0 16.0 0.00 0.00 0.00 73 1010.6
20260506120012 64 203 6.0 12.0 0.00 0.00 0.00 74 1010.8
20260506114525 64 236 7.0 14.0 0.00 0.00 0.00 75 1010.8
20260506113020 63 211 5.0 14.0 0.00 0.00 0.00 77 1010.9
20260506111525 62 228 5.0 12.0 0.00 0.00 0.00 79 1011.1
20260506110018 62 219 7.0 15.0 0.00 0.00 0.00 80 1011.0
20260506104510 61 158 4.0 13.0 0.00 0.00 0.00 81 1011.0
20260506103008 60 149 3.0 12.0 0.00 0.00 0.00 83 1011.0
20260506101505 60 226 4.0 8.0 0.00 0.00 0.00 83 1010.8
20260506100028 60 212 4.0 8.0 0.00 0.00 0.00 83 1010.7
20260506094523 61 198 5.0 11.0 0.00 0.00 0.00 82 1010.7
20260506093023 61 186 6.0 13.0 0.00 0.00 0.00 82 1010.7
20260506091518 61 233 6.0 10.0 0.00 0.00 0.00 82 1010.8
20260506090015 61 214 4.0 14.0 0.00 0.00 0.00 81 1011.0
20260506084517 61 186 5.0 11.0 0.00 0.00 0.00 81 1010.9
20260506083016 62 205 6.0 14.0 0.00 0.00 0.00 80 1011.0
20260506081528 62 202 2.0 15.0 0.00 0.00 0.00 80 1011.0
20260506073005 62 212 4.0 13.0 0.00 0.00 0.00 79 1011.2
20260506071504 63 184 3.0 11.0 0.00 0.00 0.00 78 1011.4
20260506061506 63 199 3.0 11.0 0.00 0.00 0.00 77 1011.4
20260506044515 65 203 5.0 10.0 0.00 0.00 0.00 70 1011.7
20260506043008 66 186 5.0 12.0 0.00 0.00 0.00 69 1011.7
20260506041509 66 159 4.0 13.0 0.00 0.00 0.00 69 1011.7
20260506040004 66 193 7.0 17.0 0.00 0.00 0.00 68 1011.7
20260506034506 66 215 7.0 14.0 0.00 0.00 0.00 68 1011.6
20260506033012 66 159 5.0 15.0 0.00 0.00 0.00 67 1011.8
20260506031510 66 200 6.0 13.0 0.00 0.00 0.00 67 1011.7
20260506030012 67 207 9.0 17.0 0.00 0.00 0.00 66 1011.7
20260506024510 67 113 6.0 16.0 0.00 0.00 0.00 66 1011.6
20260506023012 67 221 6.0 17.0 0.00 0.00 0.00 65 1011.8
20260506021509 67 230 9.0 17.0 0.00 0.00 0.00 63 1011.8
20260506020006 68 199 5.0 14.0 0.00 0.00 0.00 61 1011.8
20260506014515 68 229 7.0 15.0 0.00 0.00 0.00 60 1011.6
20260506013033 68 168 6.0 13.0 0.00 0.00 0.00 60 1011.6
20260506011523 68 205 8.0 14.0 0.00 0.00 0.00 59 1011.5
20260506010016 68 233 7.0 17.0 0.00 0.00 0.00 59 1011.3
20260506004516 69 224 8.0 14.0 0.00 0.00 0.00 58 1011.1
20260506003012 69 153 7.0 19.0 0.00 0.00 0.00 56 1011.1
20260506001512 70 208 5.0 14.0 0.00 0.00 0.00 55 1011.0
20260506000017 71 243 9.0 17.0 0.00 0.00 0.00 54 1010.7
20260505234518 72 255 6.0 15.0 0.00 0.00 0.00 52 1010.6
20260505233025 73 161 8.0 16.0 0.00 0.00 0.00 50 1010.1
20260505231523 76 225 5.0 18.0 0.00 0.00 0.00 45 1009.9
20260505230020 78 268 6.0 18.0 0.00 0.00 0.00 41 1009.6
20260505224514 78 217 6.0 16.0 0.00 0.00 0.00 41 1009.4
20260505223012 79 229 9.0 18.0 0.00 0.00 0.00 40 1009.2